Weather History for Kerrville, TX

Change the Weather History Date:

Sunday, January 20, 2013

  Actual Average (KHDO) Record (KHDO)
Temperature  
Mean Temperature 50 °F -  
Max Temperature 69 °F 63 °F 82 °F (2014)
Min Temperature 32 °F 38 °F 18 °F (2008)
Degree Days  
Heating Degree Days 14    
Moisture  
Dew Point 38 °F    
Average Humidity 73    
Maximum Humidity 100    
Minimum Humidity 37    
Precipitation  
Precipitation 0.00 in - - ()
Sea Level Pressure  
Sea Level Pressure 30.18 in    
Wind  
Wind Speed 2 mph (South)    
Max Wind Speed 9 mph    
Max Gust Speed -    
Visibility 10 miles    
Events      
Averages and records for this station are not official NWS values.
T = Trace of Precipitation, MM = Missing Value Source: NWS Daily Summary

Daily Weather History Graph

Daily Weather History Graph

Search for Another Location

Airport:

Trip Planner

Search our weather history database for the weather conditions in past years. The results will help you decide how hot, cold, wet, or windy it might be!

Date:

Astronomy

Jan. 20, 2013 Rise Set
Actual Time 7:31 AM CST 6:03 PM CST
Civil Twilight 7:06 AM CST 6:29 PM CST
Nautical Twilight 6:37 AM CST 6:58 PM CST
Astronomical Twilight 6:08 AM CST 7:26 PM CST
Moon 1:04 PM CST (1/20) 2:07 AM CST (1/20)
Length of Visible Light 11h 22m
Length of Day
10h 31m
Waxing Gibbous, 66% of the Moon is Illuminated
Jan 20
Waxing Gibbous
Jan 26
Full
Feb 3
Last Quarter
Feb 10
New
Feb 17
First Quarter

Hourly Weather History & Observations

Time (CST) Temp. Windchill Dew Point Humidity Pressure Visibility Wind Dir Wind Speed Gust Speed Precip Events Conditions
12:15 AM 35.6 °F - 32.0 °F 87% 30.24 in 10.0 mi Calm Calm - N/A   Clear
12:35 AM 35.6 °F - 32.0 °F 87% 30.23 in 10.0 mi Calm Calm - N/A   Clear
12:55 AM 35.6 °F - 32.0 °F 87% 30.23 in 10.0 mi Calm Calm - N/A   Scattered Clouds
1:15 AM 35.6 °F - 33.8 °F 93% 30.23 in 10.0 mi Calm Calm - N/A   Clear
1:35 AM 35.6 °F - 33.8 °F 93% 30.22 in 10.0 mi Calm Calm - N/A   Clear
1:55 AM 35.6 °F - 33.8 °F 93% 30.23 in 10.0 mi Calm Calm - N/A   Clear
2:15 AM 35.6 °F - 33.8 °F 93% 30.22 in 10.0 mi Calm Calm - N/A   Clear
2:35 AM 33.8 °F - 32.0 °F 93% 30.22 in 10.0 mi Calm Calm - N/A   Clear
2:55 AM 33.8 °F - 32.0 °F 93% 30.22 in 10.0 mi Calm Calm - N/A   Scattered Clouds
3:15 AM 33.8 °F - 32.0 °F 93% 30.22 in 10.0 mi Calm Calm - N/A   Scattered Clouds
3:35 AM 33.8 °F - 32.0 °F 93% 30.22 in 10.0 mi Calm Calm - N/A   Scattered Clouds
3:55 AM 32.0 °F - 32.0 °F 100% 30.21 in 10.0 mi Calm Calm - N/A   Clear
4:15 AM 32.0 °F - 30.2 °F 93% 30.21 in 10.0 mi Calm Calm - N/A   Clear
4:35 AM 32.0 °F - 32.0 °F 100% 30.21 in 10.0 mi Calm Calm - N/A   Clear
4:55 AM 32.0 °F 28.7 °F 32.0 °F 100% 30.20 in 10.0 mi NW 3.5 mph - N/A   Clear
5:15 AM 32.0 °F - 30.2 °F 93% 30.20 in 10.0 mi Calm Calm - N/A   Clear
5:35 AM 32.0 °F - 30.2 °F 93% 30.19 in 10.0 mi Calm Calm - N/A   Clear
5:55 AM 32.0 °F - 30.2 °F 93% 30.20 in 10.0 mi Calm Calm - N/A   Clear
6:15 AM 32.0 °F - 30.2 °F 93% 30.20 in 10.0 mi Calm Calm - N/A   Clear
6:35 AM 32.0 °F - 30.2 °F 93% 30.20 in 10.0 mi Calm Calm - N/A   Clear
6:55 AM 32.0 °F 28.7 °F 30.2 °F 93% 30.21 in 10.0 mi NW 3.5 mph - N/A   Clear
7:15 AM 32.0 °F - 30.2 °F 93% 30.22 in 10.0 mi Calm Calm - N/A   Clear
7:35 AM 32.0 °F 28.7 °F 30.2 °F 93% 30.22 in 10.0 mi NW 3.5 mph - N/A   Clear
7:55 AM 32.0 °F - 30.2 °F 93% 30.23 in 10.0 mi Calm Calm - N/A   Clear
8:15 AM 32.0 °F - 30.2 °F 93% 30.23 in 10.0 mi Calm Calm - N/A   Clear
8:35 AM 33.8 °F 30.8 °F 32.0 °F 93% 30.24 in 10.0 mi NW 3.5 mph - N/A   Clear
8:55 AM 35.6 °F 32.8 °F 33.8 °F 93% 30.24 in 10.0 mi NW 3.5 mph - N/A   Clear
9:15 AM 37.4 °F - 33.8 °F 87% 30.25 in 10.0 mi Calm Calm - N/A   Clear
9:35 AM 41.0 °F - 35.6 °F 81% 30.25 in 10.0 mi Calm Calm - N/A   Clear
9:55 AM 44.6 °F - 37.4 °F 76% 30.26 in 10.0 mi Calm Calm - N/A   Clear
10:15 AM 50.0 °F - 41.0 °F 71% 30.26 in 10.0 mi Calm Calm - N/A   Clear
10:35 AM 53.6 °F - 42.8 °F 67% 30.26 in 10.0 mi Calm Calm - N/A   Clear
10:55 AM 55.4 °F - 44.6 °F 67% 30.25 in 10.0 mi Calm Calm - N/A   Scattered Clouds
11:15 AM 59.0 °F - 44.6 °F 59% 30.24 in 10.0 mi Calm Calm - N/A   Clear
11:35 AM 60.8 °F - 44.6 °F 55% 30.24 in 10.0 mi Calm Calm - N/A   Clear
11:55 AM 62.6 °F - 42.8 °F 48% 30.22 in 10.0 mi SSW 3.5 mph - N/A   Scattered Clouds
12:15 PM 64.4 °F - 41.0 °F 42% 30.21 in 10.0 mi WSW 8.1 mph - N/A   Scattered Clouds
12:35 PM 66.2 °F - 42.8 °F 43% 30.19 in 10.0 mi South 3.5 mph - N/A   Clear
12:55 PM 68.0 °F - 42.8 °F 40% 30.17 in 10.0 mi SSE 5.8 mph - N/A   Clear
1:15 PM 68.0 °F - 44.6 °F 43% 30.16 in 10.0 mi South 8.1 mph - N/A   Scattered Clouds
1:55 PM 68.0 °F - 44.6 °F 43% 30.14 in 10.0 mi South 5.8 mph - N/A   Clear
2:15 PM 68.0 °F - 41.0 °F 37% 30.13 in 10.0 mi South 8.1 mph - N/A   Clear
2:35 PM 68.0 °F - 41.0 °F 37% 30.12 in 10.0 mi South 8.1 mph - N/A   Clear
2:55 PM 69.8 °F - 42.8 °F 38% 30.12 in 10.0 mi South 5.8 mph - N/A   Clear
3:15 PM 69.8 °F - 42.8 °F 38% 30.12 in 10.0 mi SW 4.6 mph - N/A   Clear
3:35 PM 68.0 °F - 42.8 °F 40% 30.12 in 10.0 mi South 9.2 mph - N/A   Clear
3:55 PM 68.0 °F - 42.8 °F 40% 30.12 in 10.0 mi South 9.2 mph - N/A   Clear
4:15 PM 68.0 °F - 42.8 °F 40% 30.11 in 10.0 mi South 8.1 mph - N/A   Clear
4:35 PM 68.0 °F - 42.8 °F 40% 30.11 in 10.0 mi South 8.1 mph - N/A   Clear
4:55 PM 68.0 °F - 42.8 °F 40% 30.11 in 10.0 mi South 8.1 mph - N/A   Clear
5:15 PM 64.4 °F - 42.8 °F 45% 30.11 in 10.0 mi South 5.8 mph - N/A   Clear
5:35 PM 64.4 °F - 42.8 °F 45% 30.11 in 10.0 mi South 6.9 mph - N/A   Clear
5:55 PM 62.6 °F - 42.8 °F 48% 30.11 in 10.0 mi South 5.8 mph - N/A   Clear
6:15 PM 59.0 °F - 42.8 °F 55% 30.11 in 10.0 mi SE 5.8 mph - N/A   Clear
6:35 PM 59.0 °F - 44.6 °F 59% 30.12 in 10.0 mi SE 5.8 mph - N/A   Clear
6:55 PM 59.0 °F - 44.6 °F 59% 30.11 in 10.0 mi SE 5.8 mph - N/A   Clear
7:15 PM 55.4 °F - 42.8 °F 63% 30.12 in 10.0 mi SE 4.6 mph - N/A   Clear
7:35 PM 55.4 °F - 44.6 °F 67% 30.13 in 10.0 mi Calm Calm - N/A   Clear
7:55 PM 55.4 °F - 44.6 °F 67% 30.13 in 10.0 mi Calm Calm - N/A   Clear
8:15 PM 50.0 °F - 42.8 °F 76% 30.13 in 10.0 mi Calm Calm - N/A   Clear
8:35 PM 50.0 °F - 42.8 °F 76% 30.14 in 10.0 mi Calm Calm - N/A   Clear
8:55 PM 48.2 °F - 41.0 °F 76% 30.14 in 10.0 mi Calm Calm - N/A   Clear
9:15 PM 48.2 °F - 42.8 °F 82% 30.14 in 10.0 mi Calm Calm - N/A   Clear
9:35 PM 46.4 °F - 41.0 °F 81% 30.14 in 10.0 mi Calm Calm - N/A   Clear
9:55 PM 42.8 °F - 39.2 °F 87% 30.15 in 10.0 mi Calm Calm - N/A   Clear
10:15 PM 42.8 °F 41.1 °F 39.2 °F 87% 30.15 in 10.0 mi NNW 3.5 mph - N/A   Clear
10:35 PM 42.8 °F - 39.2 °F 87% 30.15 in 10.0 mi Calm Calm - N/A   Clear
10:55 PM 41.0 °F - 37.4 °F 87% 30.16 in 10.0 mi Calm Calm - N/A   Clear
11:15 PM 41.0 °F - 37.4 °F 87% 30.16 in 10.0 mi Calm Calm - N/A   Clear
11:35 PM 41.0 °F - 37.4 °F 87% 30.16 in 10.0 mi Calm Calm - N/A   Clear
11:55 PM 41.0 °F - 37.4 °F 87% 30.15 in 10.0 mi Calm Calm - N/A   Clear